Regional Weather Roundup
Issued by NWS

Home | Current Version | Previous Version | Graphics & Text | Print | Product List | Glossary On
Versions: 1 2 3 4 5 6 7 8 9 10 11 12 13 14 15 16 17 18 19 20 21 22 23 24 25 26 27 28 29 30 31 32 33 34 35 36 37 38 39 40 41 42 43 44 45 46 47 48 49 50
000
ASUS45 KABQ 240301
RWRNM
NEW MEXICO REGIONAL WEATHER ROUNDUP
NATIONAL WEATHER SERVICE ALBUQUERQUE NM
900 PM MDT SAT MAY 23 2015

NOTE: "FAIR" MEANS FEW OR NO CLOUDS BELOW 12,000 FEET AGL WITH NO
       SIGNIFICANT WEATHER OR OBSTRUCTIONS TO VISION.

      THIS PRODUCT IS RELEASED AS TWO VERSIONS.  ONE VERSION NEAR
      THE TOP OF THE HOUR CONTAINING PRELIMINARY DATA FROM ALBUQUERQUE
      AND OTHER STATIONS.  A FINAL VERSION WITH ADDITIONAL DATA IS
      ISSUED ABOUT 10 MINUTES AFTER THE HOUR.

NMZ501-503-504-510>518-240400-
NORTHWEST PLATEAU/NORTHCENTRAL MOUNTAINS

CITY           SKY/WX    TMP DP  RH WIND       PRES   REMARKS
FARMINGTON     CLOUDY    48  41  76 W6        30.01R
SANTA FE       PTCLDY    54  26  34 NW5       29.96R
TAOS           MOCLDY    52  27  37 CALM      30.00F

$$
NMZ402-403-502-505>509-240400-
WESTCENTRAL MOUNTAINS/SOUTHWEST MOUNTAINS

CITY           SKY/WX    TMP DP  RH WIND       PRES   REMARKS
GALLUP         MOCLDY    50  35  56 NW13      30.04R
GRANTS         CLEAR     52  26  35 NW12      30.04R
SILVER CITY    CLEAR     57  19  23 NW10      30.01S

$$
NMZ407-409-411-412-240400-
SOUTHERN DESERTS

CITY           SKY/WX    TMP DP  RH WIND       PRES   REMARKS
LORDSBURG      FAIR      64  25  22 W14       29.95R
DEMING         CLEAR     67  18  15 W10       29.93R
HOLLOMAN AFB   CLEAR     67  24  20 SW7       29.88R
ALAMOGORDO     CLEAR     64  16  15 SW7       29.90R
T OR C         CLEAR     67  20  16 W13       29.91R

$$
NMZ519>523-240400-
CENTRAL VALLEYS/CENTRAL HIGHLANDS

CITY           SKY/WX    TMP DP  RH WIND       PRES   REMARKS
ALBUQUERQUE    MOCLDY    67  23  19 SW7       29.94R
DOUBLE EAGLE   PTCLDY    55  30  38 W7        29.96R
MORIARTY ARPT  MOCLDY    56  28  34 W8        29.98S
CLINES CORNERS PTCLDY    51  27  39 W12       29.99R
BELEN          MOCLDY    64  22  20 NW16G23   29.93R
SOCORRO        NOT AVBL

$$
NMZ524>526-539-540-240400-
SOUTHCENTRAL MOUNTAINS

CITY           SKY/WX    TMP DP  RH WIND       PRES   REMARKS
RUIDOSO        NOT AVBL

$$
NMZ527>531-240400-
NORTHEAST HIGHLANDS/NORTHEAST PLAINS

CITY           SKY/WX    TMP DP  RH WIND       PRES   REMARKS
LAS VEGAS      PTCLDY    55  24  30 W3        29.97F
RATON          PTCLDY    55  28  35 W15       29.92R
CLAYTON        CLOUDY    58  57  97 SE15G23   29.87R

$$
NMZ532>537-240400-
EASTCENTRAL PLAINS

CITY           SKY/WX    TMP DP  RH WIND       PRES   REMARKS
TUCUMCARI      MOCLDY    66  41  40 W3        29.81S
CANNON AFB     CLOUDY    62  54  75 S8        29.85R
CLOVIS AIRPORT CLOUDY    63  50  63 S17G24    29.82

$$
NMZ028-029-538-240400-
SOUTHEAST PLAINS

CITY           SKY/WX    TMP DP  RH WIND       PRES   REMARKS
ROSWELL        PTCLDY    69  25  19 W13       29.81S
ARTESIA        CLEAR     66  21  18 SW10      29.84R
CARLSBAD       PTCLDY    64  53  67 S9        29.83R
HOBBS          MOCLDY    57  57 100 SE8       29.89S


$$



USA.gov is the U.S. government's official web portal to all federal, state and local government web resources and services.